This demonstration page uses our WeatherBlox Daily Observations layout. Learn more.

Left ArrowRight Arrow

Hourly Observations for January 23, 2016

Temp ( °F °C ) Dew Point ( °F °C ) Humidity (%) Winds ( mph kmh ) Pressure ( in mb ) Visibility ( mi km ) Precip ( " mm )
12:53 am 00:53 Clear 30 -1.1 23 -5 75 75 N 3 6 30.22 1024 10 16 0.00 0.00
1:53 am 01:53 Clear 28 -2.2 22 -5.6 78 78 N 6 9 30.20 1023 10 16 0.00 0.00
2:53 am 02:53 Clear 27 -2.8 21 -6.1 78 78 N 6 9 30.17 1022 10 16 0.00 0.00
3:53 am 03:53 Clear 26 -3.3 21 -6.1 81 81 NNE 5 7 30.15 1021 10 16 0.00 0.00
4:53 am 04:53 Clear 26 -3.3 21 -6.1 81 81 Calm 30.14 1021 10 16 0.00 0.00
5:53 am 05:53 Clear 25 -3.9 20 -6.7 81 81 N 3 6 30.15 1021 10 16 0.00 0.00
6:53 am 06:53 Clear 24 -4.4 20 -6.7 84 84 N 5 7 30.16 1021 10 16 0.00 0.00
7:53 am 07:53 Sunny 24 -4.4 20 -6.7 84 84 NNE 5 7 30.17 1022 10 16 0.00 0.00
8:53 am 08:53 Sunny 34 1.1 25 -3.9 70 70 Calm 30.16 1021 10 16 0.00 0.00
9:53 am 09:53 Sunny 41 5 26 -3.3 55 55 SSE 6 9 30.16 1021 10 16 0.00 0.00
10:53 am 10:53 Sunny 48 8.9 26 -3.3 42 42 Calm 30.15 1021 10 16 0.00 0.00
11:53 am 11:53 Sunny 54 12.2 26 -3.3 34 34 VRB 3 6 30.12 1020 10 16 0.00 0.00
12:53 pm 12:53 Sunny 58 14.4 26 -3.3 29 29 S 7 11 30.07 1018 10 16 0.00 0.00
1:53 pm 13:53 Sunny 62 16.7 26 -3.3 25 25 S 8 13 30.03 1017 10 16 0.00 0.00
2:53 pm 14:53 Sunny 62 16.7 25 -3.9 24 24 SSE 10 17 29.99 1016 10 16 0.00 0.00
3:53 pm 15:53 Sunny 65 18.3 24 -4.4 21 21 SSE 10 17 29.96 1015 10 16 0.00 0.00
4:53 pm 16:53 Sunny 67 19.4 23 -5 19 19 S 9 15 29.95 1014 10 16 0.00 0.00
5:53 pm 17:53 Sunny 61 16.1 24 -4.4 24 24 SSE 8 13 29.95 1014 10 16 0.00 0.00
6:53 pm 18:53 Clear 56 13.3 25 -3.9 30 30 SE 9 15 29.96 1014 10 16 0.00 0.00
7:53 pm 19:53 Clear 54 12.2 27 -2.8 35 35 SE 15 24 29.96 1015 10 16 0.00 0.00
8:53 pm 20:53 Clear 50 10 26 -3.3 39 39 SE 13 20 29.96 1015 10 16 0.00 0.00
9:53 pm 21:53 Clear 48 8.9 26 -3.3 42 42 SE 13 20 29.94 1014 10 16 0.00 0.00
10:53 pm 22:53 Clear 44 6.7 26 -3.3 49 49 SE 9 15 29.93 1014 10 16 0.00 0.00
11:53 pm 23:53 Clear 42 5.6 27 -2.8 55 55 SE 9 15 29.92 1013 10 16 0.00 0.00

Powered by AerisWeather